CZ-6A DEB

Satellite information

Favourite Embed

Satellite Type and Status

DEBRISIN ORBIT

Key statistics

Satellite CZ-6A DEB at a glance.

Uptime

1072

Days in orbit

Revolutions

≈ 14.4

Per day

Orbit

SSO

Sun Synchronous Orbit

Inclination

98.7

Latest

Satellite identification and parameters

Extended collection of information and parameters for CZ-6A DEB.

Object identification

Identified? True

Debris? True

Object name: CZ-6A DEB

International designator: 2022-151JN

Object number (NORAD): 54510

Object ID (CCSDS): 54510

Country: PEOPLES REPUBLIC OF CHINA (PRC)

Current information (Y/N): Y

RCS size: SMALL

Orbital parameters

Period: 99.825 minutes

Inclination: 98.7023 deg

SMA: 7128.304 km

Apoapsis: 793.968 km

Periapsis: 706.371 km

RAAN: 328.916 deg

Eccentricy: 0.00614427

Argument of periapsis: 301.9326 deg

Mean anomaly: 57.5897 deg

Mean motion: 14.42525176 rev/day

Mean motion (dot): 0.00005584 rev/day2

B* drag term: 0.001659342 1/REarth

Two-line elements (TLE)

Creation date: Oct. 18, 2025, 2:17 a.m.

Reference frame: TEME

Reference center: EARTH

Epoch: Oct. 17, 2025, 10:39 p.m. UTC

TLE line 0: 0 CZ-6A DEB

TLE line 1: 1 54510U 22151JN 25290.94413463 .00005584 00000-0 16593-2 0 9996

TLE line 2: 2 54510 98.7023 328.9160 0061443 301.9326 57.5897 14.42525176153543

Live tracking on map

Real-time ground track for satellite CZ-6A DEB.

In-orbit conjunctions

A list of the most updated potential collisions computed for object CZ-6A DEB.

Target Orbit TCA Probability of collision Miss distance Type
RITE TARGET 2 SSO 2025-08-08 00:34:11 0.0001522711 149.0 (m) PAYLOAD
IRIDIUM 4 LEO 2025-08-07 12:52:38 0.0002953508 614.0 (m) PAYLOAD
CZ-6A DEB LEO 2025-04-11 13:22:52 0.0002661358 94.0 (m) DEBRIS
CZ-6A DEB LEO 2025-04-10 19:01:16 0.0001215606 35.0 (m) DEBRIS
CZ-6A DEB LEO 2025-03-20 02:07:10 0.0001501856 336.0 (m) DEBRIS

Associated space launch

Chinese satellite reported for atmospheric/ocean/environmental/spatial parameter research purposes, details TBD.

CZ-6A DEB was lifted into orbit during the mission ‘Long March 6A | Yunhai 3’, on board a Long March 6A space rocket.

The launch took place on Nov. 11, 2022, 10:52 p.m. from Launch Complex 9A.

For more information about the launch, click the button.

Launch to space Long March 6A | Yunhai 3
Long March 6A | Yunhai 3

Agency: N/A

Status: Launch Successful

Launch date: Nov. 11, 2022, 10:52 p.m. UTC

Rocket: Long March 6A

Launch pad: Launch Complex 9A

Location: Taiyuan Satellite Launch Center, People's Republic of China

...

Latest news about this satellite

There are no fresh news available about this satellite. Check back as we update our databases every day.


Newsletter sign-up

Weekly statistics, charts and insights to help you stay on top of the space industry.